| time (UTC) | temp F | wind direction | speed knots | gust knots | rain 1hr in | rain 24hr in | rain mn in | humidity % | barometer mb |
| 20260504195130 | 72 | 79 | 5.2 | 11.3 | 0.00 | 0.00 | 0.00 | 34 | 1010.0 |
| 20260504194855 | 72 | 84 | 4.3 | 12.2 | 0.00 | 0.00 | 0.00 | 35 | 1009.9 |
| 20260504194352 | 72 | 56 | 3.5 | 12.2 | 0.00 | 0.00 | 0.00 | 37 | 1010.0 |
| 20260504193625 | 72 | 80 | 4.3 | 10.4 | 0.00 | 0.00 | 0.00 | 37 | 1010.1 |
| 20260504193109 | 72 | 67 | 5.2 | 13.9 | 0.00 | 0.00 | 0.00 | 38 | 1010.0 |
| 20260504192608 | 71 | 51 | 5.2 | 13.9 | 0.00 | 0.00 | 0.00 | 36 | 1010.3 |
| 20260504192111 | 71 | 80 | 4.3 | 12.2 | 0.00 | 0.00 | 0.00 | 38 | 1010.2 |
| 20260504191543 | 71 | 85 | 4.3 | 11.3 | 0.00 | 0.00 | 0.00 | 37 | 1010.2 |
| 20260504191026 | 71 | 93 | 4.3 | 11.3 | 0.00 | 0.00 | 0.00 | 34 | 1010.3 |
| 20260504190526 | 71 | 87 | 4.3 | 9.6 | 0.00 | 0.00 | 0.00 | 36 | 1010.6 |
| 20260504190027 | 72 | 45 | 4.3 | 11.3 | 0.00 | 0.00 | 0.00 | 38 | 1010.6 |
| 20260504185458 | 71 | 79 | 5.2 | 11.3 | 0.00 | 0.00 | 0.00 | 38 | 1010.7 |
| 20260504184931 | 71 | 70 | 5.2 | 15.6 | 0.00 | 0.00 | 0.00 | 38 | 1010.7 |
| 20260504184417 | 71 | 69 | 5.2 | 15.6 | 0.00 | 0.00 | 0.00 | 37 | 1010.7 |
| 20260504184145 | 71 | 70 | 5.2 | 12.2 | 0.00 | 0.00 | 0.00 | 36 | 1010.8 |
| 20260504183419 | 71 | 37 | 5.2 | 12.2 | 0.00 | 0.00 | 0.00 | 35 | 1010.8 |
| 20260504183124 | 71 | 35 | 5.2 | 10.4 | 0.00 | 0.00 | 0.00 | 38 | 1011.0 |
| 20260504182353 | 71 | 38 | 4.3 | 9.6 | 0.00 | 0.00 | 0.00 | 36 | 1011.0 |
| 20260504181851 | 71 | 88 | 6.1 | 15.6 | 0.00 | 0.00 | 0.00 | 37 | 1011.1 |
| 20260504181346 | 70 | 66 | 7.0 | 15.6 | 0.00 | 0.00 | 0.00 | 37 | 1011.1 |
| 20260504180831 | 70 | 81 | 5.2 | 13.9 | 0.00 | 0.00 | 0.00 | 37 | 1011.1 |
| 20260504180322 | 70 | 72 | 5.2 | 8.7 | 0.00 | 0.00 | 0.00 | 40 | 1011.2 |
| 20260504175805 | 70 | 67 | 5.2 | 12.2 | 0.00 | 0.00 | 0.00 | 36 | 1011.4 |
| 20260504175307 | 70 | 74 | 5.2 | 12.2 | 0.00 | 0.00 | 0.00 | 39 | 1011.3 |
| 20260504174802 | 69 | 56 | 6.1 | 12.2 | 0.00 | 0.00 | 0.00 | 38 | 1011.4 |
| 20260504174233 | 70 | 58 | 5.2 | 12.2 | 0.00 | 0.00 | 0.00 | 38 | 1011.5 |
| 20260504173724 | 70 | 98 | 4.3 | 11.3 | 0.00 | 0.00 | 0.00 | 36 | 1011.4 |
| 20260504173229 | 69 | 43 | 5.2 | 13.0 | 0.00 | 0.00 | 0.00 | 38 | 1011.5 |
| 20260504172713 | 69 | 25 | 6.1 | 13.0 | 0.00 | 0.00 | 0.00 | 40 | 1011.5 |
| 20260504172211 | 69 | 29 | 5.2 | 12.2 | 0.00 | 0.00 | 0.00 | 40 | 1011.5 |
| 20260504171651 | 68 | 60 | 6.1 | 13.9 | 0.00 | 0.00 | 0.00 | 38 | 1011.7 |
| 20260504171148 | 68 | 30 | 6.1 | 13.9 | 0.00 | 0.00 | 0.00 | 36 | 1011.8 |
| 20260504170646 | 69 | 29 | 5.2 | 10.4 | 0.00 | 0.00 | 0.00 | 39 | 1011.8 |
| 20260504170411 | 69 | 47 | 4.3 | 11.3 | 0.00 | 0.00 | 0.00 | 38 | 1011.7 |
| 20260504150656 | 65 | 58 | 6.1 | 10.4 | 0.00 | 0.00 | 0.00 | 42 | 1013.3 |
| 20260504150155 | 64 | 84 | 4.3 | 10.4 | 0.00 | 0.00 | 0.00 | 42 | 1013.3 |
| 20260504140940 | 61 | 96 | 5.2 | 12.2 | 0.00 | 0.00 | 0.00 | 51 | 1013.6 |
| 20260504140700 | 61 | 67 | 5.2 | 12.2 | 0.00 | 0.00 | 0.00 | 51 | 1013.6 |
| 20260504130215 | 58 | 88 | 3.5 | 9.6 | 0.00 | 0.00 | 0.00 | 60 | 1014.0 |
| 20260504120237 | 52 | 54 | 4.3 | 10.4 | 0.00 | 0.00 | 0.00 | 66 | 1014.4 |
| 20260504110255 | 47 | 46 | 1.7 | 4.3 | 0.00 | 0.00 | 0.00 | 67 | 1014.7 |
| 20260504100111 | 45 | 54 | 0.9 | 4.3 | 0.00 | 0.00 | 0.00 | 60 | 1014.3 |
| 20260504081738 | 46 | 31 | 1.7 | 3.5 | 0.00 | 0.00 | 0.00 | 59 | 1014.2 |
| 20260504081503 | 46 | 63 | 1.7 | 3.5 | 0.00 | 0.00 | 0.00 | 59 | 1014.2 |
| 20260504080732 | 46 | 53 | 0.9 | 3.5 | 0.00 | 0.00 | 0.00 | 58 | 1014.2 |
| 20260504080206 | 46 | 80 | 0.9 | 2.6 | 0.00 | 0.00 | 0.00 | 58 | 1014.2 |
| 20260504050626 | 47 | 88 | 1.7 | 4.3 | 0.00 | 0.00 | 0.00 | 56 | 1014.1 |
| 20260504050123 | 47 | 66 | 1.7 | 3.5 | 0.00 | 0.00 | 0.00 | 56 | 1014.1 |
| 20260504045554 | 47 | 43 | 1.7 | 3.5 | 0.00 | 0.00 | 0.00 | 56 | 1014.1 |
| 20260504045036 | 48 | 58 | 0.9 | 3.5 | 0.00 | 0.00 | 0.00 | 56 | 1014.1 |
| 20260504044522 | 48 | 75 | 0.9 | 3.5 | 0.00 | 0.00 | 0.00 | 55 | 1014.0 |
| 20260504043959 | 48 | 77 | 1.7 | 3.5 | 0.00 | 0.00 | 0.00 | 55 | 1014.0 |
| 20260504043500 | 48 | 73 | 0.9 | 3.5 | 0.00 | 0.00 | 0.00 | 55 | 1014.0 |
| 20260504042949 | 48 | 52 | 0.9 | 3.5 | 0.00 | 0.00 | 0.00 | 55 | 1014.1 |
| 20260504042444 | 48 | 81 | 1.7 | 2.6 | 0.00 | 0.00 | 0.00 | 54 | 1013.9 |
| 20260504041919 | 48 | 79 | 0.9 | 3.5 | 0.00 | 0.00 | 0.00 | 54 | 1013.8 |
| 20260504041417 | 48 | 67 | 1.7 | 3.5 | 0.00 | 0.00 | 0.00 | 54 | 1013.7 |
| 20260504040848 | 48 | 78 | 1.7 | 4.3 | 0.00 | 0.00 | 0.00 | 54 | 1013.7 |
| 20260504040318 | 48 | 70 | 1.7 | 4.3 | 0.00 | 0.00 | 0.00 | 54 | 1013.7 |
| 20260504035821 | 49 | 70 | 1.7 | 4.3 | 0.00 | 0.00 | 0.00 | 54 | 1013.7 |
| 20260504035531 | 49 | 75 | 1.7 | 4.3 | 0.00 | 0.00 | 0.00 | 53 | 1013.6 |
| 20260504034802 | 49 | 63 | 1.7 | 5.2 | 0.00 | 0.00 | 0.00 | 53 | 1013.6 |
| 20260504034240 | 49 | 51 | 1.7 | 5.2 | 0.00 | 0.00 | 0.00 | 53 | 1013.5 |
| 20260504033649 | 49 | 56 | 1.7 | 5.2 | 0.00 | 0.00 | 0.00 | 52 | 1013.5 |
| 20260504033129 | 49 | 77 | 1.7 | 4.3 | 0.00 | 0.00 | 0.00 | 52 | 1013.5 |
| 20260504032631 | 50 | 73 | 1.7 | 3.5 | 0.00 | 0.00 | 0.00 | 51 | 1013.5 |
| 20260504032333 | 50 | 62 | 1.7 | 4.3 | 0.00 | 0.00 | 0.00 | 51 | 1013.4 |
| 20260504031557 | 50 | 58 | 1.7 | 4.3 | 0.00 | 0.00 | 0.00 | 51 | 1013.5 |
| 20260504031045 | 50 | 84 | 1.7 | 4.3 | 0.00 | 0.00 | 0.00 | 51 | 1013.4 |
| 20260504030520 | 50 | 58 | 1.7 | 4.3 | 0.00 | 0.00 | 0.00 | 50 | 1013.4 |
| 20260504030020 | 50 | 94 | 1.7 | 3.5 | 0.00 | 0.00 | 0.00 | 51 | 1013.4 |
| 20260504025457 | 50 | 82 | 1.7 | 4.3 | 0.00 | 0.00 | 0.00 | 50 | 1013.3 |
| 20260504024949 | 50 | 49 | 1.7 | 4.3 | 0.00 | 0.00 | 0.00 | 51 | 1013.4 |
| 20260504024447 | 50 | 71 | 1.7 | 4.3 | 0.00 | 0.00 | 0.00 | 50 | 1013.3 |
| 20260504023933 | 51 | 64 | 1.7 | 3.5 | 0.00 | 0.00 | 0.00 | 49 | 1013.4 |
| 20260504023436 | 51 | 56 | 1.7 | 2.6 | 0.00 | 0.00 | 0.00 | 48 | 1013.4 |
| 20260504023146 | 51 | 79 | 0.9 | 3.5 | 0.00 | 0.00 | 0.00 | 48 | 1013.5 |
| 20260504022415 | 51 | 78 | 1.7 | 3.5 | 0.00 | 0.00 | 0.00 | 48 | 1013.4 |
| 20260504021901 | 51 | 80 | 1.7 | 3.5 | 0.00 | 0.00 | 0.00 | 48 | 1013.4 |
| 20260504021333 | 51 | 65 | 0.9 | 3.5 | 0.00 | 0.00 | 0.00 | 47 | 1013.4 |
| 20260504020821 | 51 | 79 | 1.7 | 3.5 | 0.00 | 0.00 | 0.00 | 47 | 1013.3 |
| 20260504020317 | 52 | 86 | 1.7 | 4.3 | 0.00 | 0.00 | 0.00 | 47 | 1013.3 |
| 20260504015818 | 52 | 85 | 1.7 | 4.3 | 0.00 | 0.00 | 0.00 | 47 | 1013.3 |
| 20260504015309 | 52 | 70 | 1.7 | 3.5 | 0.00 | 0.00 | 0.00 | 47 | 1013.3 |
| 20260504015045 | 52 | 55 | 1.7 | 3.5 | 0.00 | 0.00 | 0.00 | 47 | 1013.3 |
| 20260504014254 | 52 | 86 | 1.7 | 4.3 | 0.00 | 0.00 | 0.00 | 46 | 1013.2 |
| 20260504013750 | 52 | 80 | 1.7 | 4.3 | 0.00 | 0.00 | 0.00 | 46 | 1013.1 |
| 20260504013249 | 53 | 49 | 1.7 | 3.5 | 0.00 | 0.00 | 0.00 | 45 | 1013.1 |
| 20260504012751 | 53 | 94 | 1.7 | 3.5 | 0.00 | 0.00 | 0.00 | 45 | 1013.0 |
| 20260504012218 | 53 | 84 | 1.7 | 3.5 | 0.00 | 0.00 | 0.00 | 45 | 1013.0 |
| 20260504011716 | 53 | 79 | 1.7 | 3.5 | 0.00 | 0.00 | 0.00 | 44 | 1012.8 |
| 20260504011218 | 53 | 88 | 1.7 | 2.6 | 0.00 | 0.00 | 0.00 | 44 | 1012.8 |
| 20260504010651 | 54 | 85 | 1.7 | 3.5 | 0.00 | 0.00 | 0.00 | 44 | 1012.6 |
| 20260504010127 | 54 | 87 | 1.7 | 5.2 | 0.00 | 0.00 | 0.00 | 43 | 1012.6 |
| 20260504005605 | 54 | 82 | 1.7 | 5.2 | 0.00 | 0.00 | 0.00 | 42 | 1012.6 |
| 20260504005311 | 54 | 79 | 1.7 | 3.5 | 0.00 | 0.00 | 0.00 | 43 | 1012.5 |
| 20260504004524 | 54 | 80 | 1.7 | 4.3 | 0.00 | 0.00 | 0.00 | 42 | 1012.5 |
| 20260504004025 | 54 | 84 | 1.7 | 4.3 | 0.00 | 0.00 | 0.00 | 41 | 1012.5 |
| 20260504003458 | 55 | 82 | 1.7 | 3.5 | 0.00 | 0.00 | 0.00 | 42 | 1012.5 |
| 20260504002955 | 55 | 87 | 1.7 | 2.6 | 0.00 | 0.00 | 0.00 | 41 | 1012.3 |
| 20260504002449 | 55 | 87 | 0.9 | 2.6 | 0.00 | 0.00 | 0.00 | 41 | 1012.3 |
| 20260504001930 | 55 | 83 | 0.9 | 2.6 | 0.00 | 0.00 | 0.00 | 40 | 1012.2 |
| 20260504001404 | 55 | 83 | 0.9 | 2.6 | 0.00 | 0.00 | 0.00 | 40 | 1012.2 |
| 20260504001359 | 56 | 89 | 1.7 | 2.6 | 0.00 | 0.00 | 0.00 | 40 | 1012.0 |
| 20260504000331 | 56 | 88 | 1.7 | 3.5 | 0.00 | 0.00 | 0.00 | 39 | 1011.9 |
| 20260503235831 | 56 | 82 | 1.7 | 3.5 | 0.00 | 0.00 | 0.00 | 39 | 1011.9 |
| 20260503235600 | 57 | 86 | 1.7 | 3.5 | 0.00 | 0.00 | 0.00 | 38 | 1011.9 |
| 20260503234829 | 57 | 83 | 1.7 | 3.5 | 0.00 | 0.00 | 0.00 | 38 | 1011.8 |
| 20260503234316 | 57 | 76 | 1.7 | 3.5 | 0.00 | 0.00 | 0.00 | 38 | 1011.8 |
| 20260503233800 | 58 | 92 | 2.6 | 3.5 | 0.00 | 0.00 | 0.00 | 37 | 1011.8 |
| 20260503233302 | 58 | 83 | 2.6 | 4.3 | 0.00 | 0.00 | 0.00 | 36 | 1011.7 |
| 20260503232740 | 58 | 90 | 2.6 | 4.3 | 0.00 | 0.00 | 0.00 | 35 | 1011.7 |
| 20260503232444 | 58 | 79 | 2.6 | 4.3 | 0.00 | 0.00 | 0.00 | 35 | 1011.6 |
| 20260503231646 | 58 | 79 | 2.6 | 5.2 | 0.00 | 0.00 | 0.00 | 35 | 1011.7 |
| 20260503231122 | 59 | 82 | 2.6 | 5.2 | 0.00 | 0.00 | 0.00 | 34 | 1011.6 |
| 20260503230555 | 59 | 86 | 2.6 | 5.2 | 0.00 | 0.00 | 0.00 | 36 | 1011.6 |
| 20260503230308 | 59 | 79 | 1.7 | 5.2 | 0.00 | 0.00 | 0.00 | 34 | 1011.5 |
| 20260503225536 | 59 | 81 | 1.7 | 5.2 | 0.00 | 0.00 | 0.00 | 35 | 1011.5 |
| 20260503225017 | 60 | 83 | 2.6 | 7.8 | 0.00 | 0.00 | 0.00 | 35 | 1011.6 |
| 20260503224451 | 60 | 65 | 2.6 | 7.8 | 0.00 | 0.00 | 0.00 | 34 | 1011.6 |
| 20260503223915 | 60 | 71 | 3.5 | 8.7 | 0.00 | 0.00 | 0.00 | 34 | 1011.5 |
| 20260503223417 | 60 | 86 | 3.5 | 8.7 | 0.00 | 0.00 | 0.00 | 32 | 1011.6 |
| 20260503222916 | 60 | 85 | 2.6 | 5.2 | 0.00 | 0.00 | 0.00 | 33 | 1011.5 |
| 20260503222414 | 60 | 86 | 2.6 | 6.1 | 0.00 | 0.00 | 0.00 | 33 | 1011.5 |
| 20260503221916 | 60 | 101 | 2.6 | 6.1 | 0.00 | 0.00 | 0.00 | 34 | 1011.6 |
| 20260503221415 | 60 | 91 | 3.5 | 9.6 | 0.00 | 0.00 | 0.00 | 33 | 1011.6 |
| 20260503220850 | 60 | 78 | 3.5 | 9.6 | 0.00 | 0.00 | 0.00 | 32 | 1011.5 |
| 20260503220320 | 60 | 84 | 2.6 | 7.0 | 0.00 | 0.00 | 0.00 | 32 | 1011.4 |
| 20260503215816 | 60 | 81 | 1.7 | 7.0 | 0.00 | 0.00 | 0.00 | 31 | 1011.5 |
| 20260503215524 | 61 | 96 | 1.7 | 6.1 | 0.00 | 0.00 | 0.00 | 31 | 1011.5 |
| 20260503214750 | 60 | 132 | 2.6 | 8.7 | 0.00 | 0.00 | 0.00 | 33 | 1011.5 |
| 20260503214250 | 61 | 106 | 1.7 | 8.7 | 0.00 | 0.00 | 0.00 | 31 | 1011.5 |
| 20260503213734 | 61 | 113 | 1.7 | 5.2 | 0.00 | 0.00 | 0.00 | 33 | 1011.4 |
| 20260503213506 | 61 | 88 | 0.9 | 5.2 | 0.00 | 0.00 | 0.00 | 34 | 1011.4 |
| 20260503212718 | 61 | 101 | 1.7 | 7.0 | 0.00 | 0.00 | 0.00 | 33 | 1011.4 |
| 20260503212206 | 60 | 72 | 1.7 | 7.0 | 0.00 | 0.00 | 0.00 | 35 | 1011.5 |
| 20260503211709 | 60 | 94 | 1.7 | 7.0 | 0.00 | 0.00 | 0.00 | 33 | 1011.4 |
| 20260503211151 | 60 | 75 | 2.6 | 7.0 | 0.00 | 0.00 | 0.00 | 33 | 1011.5 |
| 20260503210645 | 60 | 85 | 3.5 | 8.7 | 0.00 | 0.00 | 0.00 | 34 | 1011.6 |
| 20260503210418 | 60 | 21 | 3.5 | 10.4 | 0.00 | 0.00 | 0.00 | 34 | 1011.7 |
| 20260503205644 | 60 | 72 | 2.6 | 10.4 | 0.00 | 0.00 | 0.00 | 33 | 1011.5 |
| 20260503205116 | 60 | 45 | 1.7 | 6.1 | 0.00 | 0.00 | 0.00 | 34 | 1011.6 |
| 20260503204846 | 60 | 143 | 1.7 | 6.1 | 0.00 | 0.00 | 0.00 | 34 | 1011.5 |
| 20260503204116 | 60 | 105 | 2.6 | 6.1 | 0.00 | 0.00 | 0.00 | 34 | 1011.6 |
| 20260503203613 | 60 | 91 | 3.5 | 10.4 | 0.00 | 0.00 | 0.00 | 37 | 1011.6 |
| 20260503203046 | 59 | 72 | 4.3 | 10.4 | 0.00 | 0.00 | 0.00 | 32 | 1011.6 |
| 20260503202547 | 60 | 84 | 3.5 | 7.8 | 0.00 | 0.00 | 0.00 | 35 | 1011.5 |
| 20260503202050 | 59 | 66 | 2.6 | 7.8 | 0.00 | 0.00 | 0.00 | 36 | 1011.6 |
| 20260503202046 | 59 | 106 | 3.5 | 7.8 | 0.00 | 0.00 | 0.00 | 35 | 1011.6 |
| 20260503201029 | 60 | 117 | 1.7 | 6.1 | 0.00 | 0.00 | 0.00 | 33 | 1011.7 |
| 20260503200530 | 60 | 78 | 1.7 | 5.2 | 0.00 | 0.00 | 0.00 | 35 | 1011.8 |
| 20260503200001 | 60 | 129 | 2.6 | 5.2 | 0.00 | 0.00 | 0.00 | 35 | 1011.7 |
| 20260503195459 | 60 | 101 | 2.6 | 5.2 | 0.00 | 0.00 | 0.00 | 33 | 1011.8 |